• In Moldova, Republic
  • List of Countries
  • For 7 days
  • Water Temperature
  • Satellite Maps
  • Weather Map
  • Weather Widgets
  • user-avatar
    Login

    Hourly Weather Shusha

    Today, 26 February, Sunday

    Time Temperature Precipitation Wind Pressure Humidity
    00:00 0°C° 0 mm 3 mps 660 mmHg 68%
    01:00 0°C° 0 mm 3 mps 660 mmHg 68%
    02:00 0°C° 0 mm 3 mps 659 mmHg 67%
    03:00 -1°C° 0 mm 3 mps 659 mmHg 71%
    04:00 -1°C° 0 mm 3 mps 658 mmHg 71%
    05:00 -1°C° 0 mm 3 mps 658 mmHg 71%
    06:00 -1°C° 0 mm 3 mps 658 mmHg 72%
    07:00 +1°C° 0 mm 3 mps 659 mmHg 70%
    08:00 +4°C° 0 mm 2 mps 659 mmHg 68%
    09:00 +5°C° 0 mm 2 mps 660 mmHg 66%
    10:00 +7°C° 0 mm 2 mps 660 mmHg 62%
    11:00 +9°C° 0 mm 1 mps 660 mmHg 58%
    12:00 +11°C° 0 mm 1 mps 661 mmHg 54%
    13:00 +10°C° 0 mm 1 mps 661 mmHg 56%
    14:00 +10°C° 0 mm 1 mps 660 mmHg 57%
    15:00 +9°C° 0 mm 2 mps 660 mmHg 59%
    16:00 +8°C° 0 mm 1 mps 660 mmHg 64%
    17:00 +6°C° 0 mm 1 mps 660 mmHg 69%
    18:00 +4°C° 0 mm 1 mps 660 mmHg 74%
    19:00 +3°C° 0 mm 1 mps 660 mmHg 78%
    20:00 +1°C° 0 mm 2 mps 661 mmHg 81%
    21:00 +1°C° 0 mm 2 mps 661 mmHg 84%
    22:00 -1°C° 0 mm 2 mps 661 mmHg 86%
    23:00 -2°C° 0 mm 2 mps 661 mmHg 88%

    Tomorrow, 27 February, Monday

    Time Temperature Precipitation Wind Pressure Humidity
    00:00 -2°C° 0 mm 2 mps 662 mmHg 90%
    01:00 -2°C° 0 mm 2 mps 662 mmHg 90%
    02:00 -3°C° 0 mm 2 mps 662 mmHg 90%
    03:00 -3°C° 0 mm 2 mps 662 mmHg 90%
    04:00 -1°C° 0 mm 1 mps 662 mmHg 89%
    05:00 -1°C° 0 mm 1 mps 662 mmHg 89%
    06:00 -2°C° 0 mm 1 mps 662 mmHg 88%
    07:00 -1°C° 0 mm 1 mps 662 mmHg 84%
    08:00 0°C° 0 mm 1 mps 663 mmHg 80%
    09:00 +2°C° 0 mm 1 mps 663 mmHg 76%
    10:00 +2°C° 0 mm 2 mps 663 mmHg 73%
    11:00 +3°C° 0 mm 2 mps 663 mmHg 71%
    12:00 +4°C° 0 mm 2 mps 663 mmHg 69%
    13:00 +4°C° 0 mm 2 mps 662 mmHg 69%
    14:00 +4°C° 0 mm 2 mps 662 mmHg 69%
    15:00 +4°C° 0 mm 2 mps 661 mmHg 70%
    16:00 +4°C° 0 mm 1 mps 661 mmHg 76%
    17:00 +2°C° 0 mm 1 mps 661 mmHg 82%
    18:00 +1°C° 0 mm 1 mps 660 mmHg 88%
    19:00 +1°C° 0 mm 1 mps 660 mmHg 88%
    20:00 0°C° 0 mm 1 mps 661 mmHg 89%
    21:00 -1°C° 0 mm 0 mps 661 mmHg 89%
    22:00 -1°C° 0 mm 0 mps 661 mmHg 89%
    23:00 0°C° 0 mm 1 mps 660 mmHg 88%

    Day after tomorrow, 28 February, Tuesday

    Time Temperature Precipitation Wind Pressure Humidity
    00:00 0°C° 0 mm 1 mps 660 mmHg 87%
    01:00 0°C° 0 mm 1 mps 660 mmHg 86%
    02:00 -1°C° 0 mm 1 mps 660 mmHg 86%
    03:00 -1°C° 0 mm 1 mps 660 mmHg 85%
    04:00 -1°C° 0 mm 1 mps 660 mmHg 84%
    05:00 -1°C° 0 mm 1 mps 660 mmHg 84%
    06:00 -1°C° 0 mm 1 mps 660 mmHg 84%
    07:00 +1°C° 0 mm 1 mps 661 mmHg 77%
    08:00 +3°C° 0 mm 1 mps 662 mmHg 71%
    09:00 +4°C° 0 mm 0 mps 663 mmHg 64%
    10:00 +6°C° 0 mm 1 mps 663 mmHg 62%
    11:00 +7°C° 0 mm 1 mps 663 mmHg 59%
    12:00 +9°C° 0 mm 1 mps 663 mmHg 56%
    13:00 +9°C° 0 mm 1 mps 663 mmHg 57%
    14:00 +9°C° 0 mm 1 mps 662 mmHg 58%
    15:00 +8°C° 0 mm 2 mps 662 mmHg 59%
    16:00 +7°C° 0 mm 1 mps 662 mmHg 67%
    17:00 +5°C° 0 mm 1 mps 661 mmHg 75%
    18:00 +3°C° 0 mm 1 mps 661 mmHg 83%
    19:00 +3°C° 0 mm 1 mps 661 mmHg 85%
    20:00 +2°C° 0 mm 1 mps 662 mmHg 86%
    21:00 +2°C° 0 mm 1 mps 662 mmHg 87%
    22:00 +2°C° 0 mm 1 mps 662 mmHg 87%
    23:00 +1°C° 0 mm 1 mps 662 mmHg 87%

    1 March, Wednesday

    Time Temperature Precipitation Wind Pressure Humidity
    00:00 +1°C° 0 mm 1 mps 662 mmHg 87%
    01:00 +1°C° 0 mm 1 mps 662 mmHg 86%
    02:00 +1°C° 0 mm 1 mps 662 mmHg 85%
    03:00 +1°C° 0 mm 1 mps 661 mmHg 84%
    04:00 +1°C° 0 mm 1 mps 662 mmHg 83%
    05:00 0°C° 0 mm 1 mps 662 mmHg 82%
    06:00 0°C° 0 mm 1 mps 662 mmHg 81%
    07:00 +2°C° 0 mm 1 mps 663 mmHg 76%
    08:00 +4°C° 0 mm 1 mps 663 mmHg 70%
    09:00 +5°C° 0 mm 0 mps 664 mmHg 64%
    10:00 +7°C° 0 mm 1 mps 664 mmHg 62%
    11:00 +9°C° 0 mm 1 mps 664 mmHg 59%
    12:00 +9°C° 0 mm 2 mps 664 mmHg 57%
    13:00 +9°C° 0 mm 2 mps 663 mmHg 58%
    14:00 +9°C° 0 mm 2 mps 663 mmHg 60%
    15:00 +9°C° 0 mm 2 mps 663 mmHg 61%
    16:00 +7°C° 0 mm 2 mps 662 mmHg 70%
    17:00 +6°C° 0 mm 1 mps 662 mmHg 78%
    18:00 +4°C° 0 mm 1 mps 661 mmHg 87%
    19:00 +4°C° 0 mm 1 mps 661 mmHg 89%
    20:00 +3°C° 0 mm 1 mps 661 mmHg 90%
    21:00 +2°C° 0 mm 0 mps 661 mmHg 92%
    22:00 +1°C° 0 mm 0 mps 661 mmHg 91%
    23:00 +1°C° 0 mm 0 mps 660 mmHg 91%

    2 March, Thursday

    Time Temperature Precipitation Wind Pressure Humidity
    00:00 +1°C° 0 mm 0 mps 660 mmHg 91%
    01:00 +1°C° 0 mm 0 mps 660 mmHg 90%
    02:00 0°C° 0 mm 0 mps 659 mmHg 90%
    03:00 0°C° 0 mm 0 mps 659 mmHg 90%
    04:00 0°C° 0 mm 0 mps 659 mmHg 90%
    05:00 0°C° 0 mm 0 mps 659 mmHg 90%
    06:00 0°C° 0 mm 0 mps 659 mmHg 90%
    07:00 +2°C° 0 mm 1 mps 659 mmHg 84%
    08:00 +4°C° 0 mm 1 mps 660 mmHg 78%
    09:00 +6°C° 0 mm 1 mps 660 mmHg 72%
    10:00 +7°C° 0 mm 1 mps 660 mmHg 69%
    11:00 +8°C° 0 mm 1 mps 659 mmHg 66%
    12:00 +8°C° 0 mm 2 mps 659 mmHg 63%
    13:00 +8°C° 0 mm 2 mps 659 mmHg 64%
    14:00 +8°C° 0 mm 2 mps 658 mmHg 66%
    15:00 +8°C° 0 mm 2 mps 658 mmHg 67%
    16:00 +8°C° 0 mm 1 mps 658 mmHg 74%
    17:00 +6°C° 0 mm 1 mps 657 mmHg 80%
    18:00 +5°C° 0 mm 1 mps 657 mmHg 87%
    19:00 +5°C° 0.1 mm 1 mps 657 mmHg 88%
    20:00 +5°C° 0.1 mm 1 mps 657 mmHg 89%
    21:00 +3°C° 0.1 mm 0 mps 657 mmHg 89%
    22:00 +4°C° 0.1 mm 1 mps 657 mmHg 90%
    23:00 +3°C° 0.1 mm 1 mps 657 mmHg 91%

    3 March, Friday

    Time Temperature Precipitation Wind Pressure Humidity
    00:00 +3°C° 0.1 mm 1 mps 656 mmHg 92%
    01:00 +2°C° 0 mm 1 mps 656 mmHg 93%
    02:00 +2°C° 0 mm 1 mps 656 mmHg 93%
    03:00 +2°C° 0 mm 1 mps 655 mmHg 94%
    04:00 +1°C° 0 mm 0 mps 655 mmHg 93%
    05:00 0°C° 0 mm 0 mps 655 mmHg 93%
    06:00 0°C° 0 mm 0 mps 655 mmHg 93%
    07:00 +3°C° 0 mm 1 mps 656 mmHg 86%
    08:00 +5°C° 0 mm 1 mps 656 mmHg 78%
    09:00 +7°C° 0 mm 1 mps 657 mmHg 71%
    10:00 +8°C° 0 mm 1 mps 657 mmHg 68%
    11:00 +9°C° 0 mm 1 mps 657 mmHg 64%
    12:00 +9°C° 0 mm 2 mps 657 mmHg 61%
    13:00 +9°C° 0 mm 2 mps 656 mmHg 62%
    14:00 +9°C° 0 mm 2 mps 656 mmHg 62%
    15:00 +9°C° 0 mm 2 mps 656 mmHg 63%
    16:00 +9°C° 0 mm 1 mps 656 mmHg 70%
    17:00 +7°C° 0 mm 1 mps 656 mmHg 77%
    18:00 +4°C° 0 mm 0 mps 656 mmHg 84%
    19:00 +4°C° 0 mm 0 mps 656 mmHg 85%
    20:00 +3°C° 0 mm 0 mps 656 mmHg 86%
    21:00 +3°C° 0 mm 0 mps 656 mmHg 87%
    22:00 +4°C° 0 mm 1 mps 656 mmHg 87%
    23:00 +3°C° 0 mm 1 mps 656 mmHg 87%
    Show more